This is the latest recevied weather packets stored in our database for station/object K0VSC-1. If no packets are shown the sender has not sent any weather packets the latest 10 day(s).
| Time | Temp. | Humidity | Pressure | Rain* | Wind** | Luminosity | Snow |
|---|---|---|---|---|---|---|---|
| 1777759992 | 17.22° C | 33% | 1010.1 hPa | 0 mm | - | 181 W/m² | - |
| 1777759692 | 17.22° C | 34% | 1010.2 hPa | 0 mm | - | 139 W/m² | - |
| 1777759392 | 17.22° C | 33% | 1010.2 hPa | 0 mm | - | 148 W/m² | - |
| 1777759092 | 17.78° C | 34% | 1010.3 hPa | 0 mm | - | 139 W/m² | - |
| 1777758792 | 17.78° C | 32% | 1010.1 hPa | 0 mm | - | 105 W/m² | - |
| 1777758492 | 17.78° C | 34% | 1010.1 hPa | 0 mm | - | 114 W/m² | - |
| 1777758192 | 17.78° C | 33% | 1010.2 hPa | 0 mm | - | 165 W/m² | - |
| 1777757892 | 17.78° C | 33% | 1010.2 hPa | 0 mm | - | 185 W/m² | - |
| 1777757592 | 17.78° C | 33% | 1010.2 hPa | 0 mm | - | 148 W/m² | - |
| 1777757293 | 17.78° C | 33% | 1010.3 hPa | 0 mm | - | 111 W/m² | - |
| 1777756992 | 18.33° C | 34% | 1010.3 hPa | 0 mm | - | 116 W/m² | - |
| 1777756693 | 18.33° C | 33% | 1010.4 hPa | 0 mm | - | 148 W/m² | - |
| 1777756393 | 18.33° C | 32% | 1010.5 hPa | 0 mm | - | 239 W/m² | - |
| 1777756092 | 18.33° C | 33% | 1010.6 hPa | 0 mm | - | 359 W/m² | - |
| 1777755792 | 18.33° C | 33% | 1010.7 hPa | 0 mm | - | 350 W/m² | - |
| 1777755492 | 18.33° C | 32% | 1010.9 hPa | 0 mm | - | 322 W/m² | - |
| 1777755193 | 18.33° C | 33% | 1010.9 hPa | 0 mm | - | 260 W/m² | - |
| 1777754892 | 18.33° C | 33% | 1010.9 hPa | 0 mm | - | 264 W/m² | - |
| 1777754593 | 17.78° C | 33% | 1011 hPa | 0 mm | - | 265 W/m² | - |
| 1777754293 | 18.33° C | 34% | 1011 hPa | 0 mm | - | 267 W/m² | - |
| 1777753992 | 17.78° C | 34% | 1011.3 hPa | 0 mm | - | 267 W/m² | - |
| 1777753693 | 18.33° C | 34% | 1011.3 hPa | 0 mm | - | 316 W/m² | - |
| 1777753392 | 17.78° C | 34% | 1011.4 hPa | 0 mm | - | 339 W/m² | - |
| 1777753093 | 17.78° C | 35% | 1011.5 hPa | 0 mm | - | 432 W/m² | - |
| 1777752793 | 17.78° C | 34% | 1011.7 hPa | 0 mm | - | 360 W/m² | - |
* Rain latest hour (hover to see other rain measurements)
** Current wind speed in m/s (hover to see current wind gust speed)